Regional Weather Roundup
Issued by NWS San Angelo, TX

Home | Current Version | Previous Version | Text Only | Print | Product List | Glossary On
Versions: 1 2 3 4 5 6 7 8 9 10 11 12 13 14 15 16 17 18 19 20 21 22 23 24 25 26 27 28 29 30 31 32 33 34 35 36 37 38 39 40 41 42 43 44 45 46 47 48 49 50
501
ASUS44 KSJT 210610
RWRSJT
WEST CENTRAL TEXAS REGIONAL WEATHER ROUNDUP
NATIONAL WEATHER SERVICE SAN ANGELO TX
1200 AM CST SAT JAN 21 2017

NOTE: "FAIR" INDICATES FEW OR NO CLOUDS BELOW 12,000 FEET WITH NO
SIGNIFICANT WEATHER AND/OR OBSTRUCTIONS TO VISIBILITY.

TXZ049-054-064>066-071>073-076>078-098-099-113-114-127-128-139-140-
154-155-168>170-210700
...LOCATIONS ACROSS WEST CENTRAL TEXAS...

CITY           SKY/WX    TMP DP  RH WIND       PRES   REMARKS
SAN ANGELO     PTCLDY    43  34  70 SE5       29.65F
ABILENE        CLEAR     46  36  68 S9        29.66S
DYESS AFB      CLEAR     42  34  72 CALM      29.64F
JUNCTION       CLEAR     44  39  82 CALM      29.66F
SWEETWATER     CLEAR     52  32  46 S8        29.66F
BROWNWOOD      CLEAR     41  37  87 CALM      29.66F
COLEMAN        CLEAR     45  34  65 W3        29.66F
SONORA         CLEAR     41  34  75 CALM      29.69F
OZONA          FAIR      39  32  75 MISG      29.68F
BRADY          NOT AVBL
$$

TEXAS PANHANDLE/OKLAHOMA PANHANDLE

CITY           SKY/WX    TMP DP  RH WIND       PRES   REMARKS
AMARILLO       CLOUDY    40  29  64 SW9       29.58S WCI  34
BORGER         CLOUDY    45  26  47 W7        29.55F
CANADIAN       CLOUDY    29  28  96 CALM      29.57F
DALHART        PTCLDY    36  26  67 SW12      29.54F WCI  28
DUMAS          PTCLDY    41  27  57 SW12      29.54F WCI  34
GUYMON         NOT AVBL
HEREFORD       PTCLDY    40  32  71 SW9       29.61S WCI  35
PAMPA          CLEAR     40  28  64 W9        29.57S WCI  33
PERRYTON       CLEAR     35  33  92 SW3       29.54S
$$

SOUTHERN PANHANDLE/SOUTH PLAINS/ROLLING PLAINS

CITY           SKY/WX    TMP DP  RH WIND       PRES   REMARKS
LUBBOCK        MOCLDY    41  33  73 S8        29.61S WCI  36
SNYDER         CLEAR     47  32  55 S7        29.64F
CHILDRESS      CLOUDY    48  35  60 W7        29.59F
SEMINOLE       CLOUDY    43  34  70 CALM      29.64S
$$

PERMIAN BASIN

CITY           SKY/WX    TMP DP  RH WIND       PRES   REMARKS
MIDLAND        PTCLDY    46  35  65 CALM      29.63F
ODESSA         CLOUDY    51  30  44 CALM      29.64F
WINK           PTCLDY    47  36  65 S8        29.64S
$$

FAR WEST/SOUTHWEST MOUNTAINS/TRANS PECOS

CITY           SKY/WX    TMP DP  RH WIND       PRES   REMARKS
ALPINE         CLOUDY    49  21  33 N5        29.76S
DRYDEN           N/A     53  35  50 NE5       29.63F
EL PASO        LGT RAIN  48  37  65 SW13      29.70F
FORT STOCKTON  PTCLDY    48  25  40 S5        29.66F
GUADALUPE PASS CLOUDY    43  30  60 W32G39    29.70R WCI  32
MARFA          CLOUDY    38  26  62 E6        29.74F WCI  33
PECOS          CLOUDY    47  33  60 SW5       29.67R
$$

DALLAS/FORT WORTH METROPLEX

CITY           SKY/WX    TMP DP  RH WIND       PRES   REMARKS
DFW AIRPORT    PTCLDY    57  48  72 S10       29.63S
FTW MEACHAM    CLEAR     56  43  61 S6        29.64F
DAL-EXECUTIVE  CLEAR     58  49  72 VRB5      29.64F
GRAND PRAIRIE  CLEAR     56  45  68 S6        29.66S
ADDISON        CLEAR     59  46  61 CALM      29.66S
MESQUITE       CLEAR     51  45  81 S6        29.65F
LANCASTER      CLEAR     55  46  72 CALM      29.66F
$$

NORTH CENTRAL TEXAS

CITY           SKY/WX    TMP DP  RH WIND       PRES   REMARKS
SHRMAN/DENISON CLEAR     60  44  57 S15       29.63F
GAINESVILLE    CLEAR     51  35  53 SW5       29.65S
BRIDGEPORT     CLEAR     55  37  51 SW6       29.66S
DENTON         CLEAR     52  39  61 S6        29.63F
WAXAHACHIE     CLEAR     54  49  83 S5        29.67F
GRANBURY       CLEAR     48  40  73 CALM      29.66F
$$

WESTERN NORTH TEXAS

CITY           SKY/WX    TMP DP  RH WIND       PRES   REMARKS
WICHITA FALLS  CLEAR     50  35  56 SW10      29.59F
VERNON         PTCLDY    46  34  62 W7        29.61S
BRECKENRIDGE   CLEAR     49  33  54 S8        29.64F
COMANCHE       CLEAR     54  42  65 SW9       29.66F
$$

CENTRAL AND SOUTH CENTRAL TEXAS

CITY           SKY/WX    TMP DP  RH WIND       PRES   REMARKS
AUSTIN/BERGSTM CLEAR     47  45  93 CALM      29.67F
WACO           CLEAR     54  50  86 SW8       29.66F
HILLSBORO      CLEAR     53  51  91 CALM      29.66F
TEMPLE         NOT AVBL
KILLEEN-GRAY   CLEAR     59  49  68 S8        29.65F
FORT HOOD      CLEAR     56  48  75 S5        29.63F
GEORGETOWN     CLEAR     52  45  76 SW3       29.67F
LAGO VISTA     FAIR      62  49  60 S5        29.68F
SAN MARCOS     CLEAR     50  48  93 CALM      29.67F
NEW BRAUNFELS  CLEAR     51  49  92 NW5       29.66F
RANDOLPH AFB   CLEAR     50  50 100 N6        29.65F
SAN ANTONIO    PTCLDY    51  48  89 NW5       29.66F
STINSON        CLEAR     53  48  83 N3        29.63F
PLEASANTON     NOT AVBL
LA GRANGE      CLEAR     61  60  97 CALM      29.65F
GIDDINGS       CLEAR     56  54  92 CALM      29.68S
$$

EAST TEXAS

CITY           SKY/WX    TMP DP  RH WIND       PRES   REMARKS
PARIS          CLEAR     52  43  71 SW3       29.65F
CLARKSVILLE    NOT AVBL
TYLER          CLEAR     56  51  84 S7        29.66F
LONGVIEW       CLOUDY    56  54  93 S7        29.64F
PALESTINE      CLOUDY    58  54  86 CALM      29.68F
NACOGDOCHES    MOCLDY    57  54  88 CALM      29.65F
$$

TEXAS HILL COUNTRY AND EDWARDS PLATEAU

CITY           SKY/WX    TMP DP  RH WIND       PRES   REMARKS
LLANO          CLEAR     46  45  93 CALM      29.69F
HORSESHOE BAY  FAIR      52  48  88 CALM      29.67F
KERRVILLE      CLEAR     46  45  94 N3        29.67F
FREDERICKSBRG  CLEAR     44  42  91 CALM      29.67F
ROCKSPRINGS    CLEAR     52  43  71 CALM      29.68F
HONDO          CLEAR     48  44  86 NE7       29.64F
UVALDE         CLEAR     51  45  81 E6        29.65F
DEL RIO        PTCLDY    51  45  79 CALM      29.64S
$$

SOUTHEAST TEXAS

CITY           SKY/WX    TMP DP  RH WIND       PRES   REMARKS
COLLEGE STN    PTCLDY    59  56  89 CALM      29.66F
CALDWELL       NOT AVBL
CROCKETT       CLOUDY    55  54  94 CALM      29.70F
BRENHAM        MOCLDY    61  61  98 CALM      29.68S FOG
HUNTSVILLE     CLOUDY    61  59  93 S6        29.67F
CONROE         MOCLDY    60  59  96 CALM      29.69R
HOUSTON BUSH   TSTM      63  62  97 CALM      29.69S
HOUSTON HOBBY  CLOUDY    67  65  93 W10       29.67R THUNDER
PERLAND        CLOUDY    72  69  90 S7        29.68S FOG
WHARTON        CLOUDY    65  64  96 CALM      29.69F
$$

THE UPPER TEXAS COAST

CITY           SKY/WX    TMP DP  RH WIND       PRES   REMARKS
ORANGE         CLOUDY    63  61  93 E3        29.69S
PORT ARTHUR    CLOUDY    65  62  90 E3        29.67S
GALVESTON      CLOUDY    71  70  96 S13       29.68S FOG
ANGLETON       CLOUDY    73  71  93 S9        29.67F
BAY CITY       CLOUDY    71  71 100 SW6       29.69S FOG
$$

TEXAS COASTAL BEND, RIO GRANDE PLAINS DEEP SOUTH TEXAS

CITY           SKY/WX    TMP DP  RH WIND       PRES   REMARKS
VICTORIA       FOG       66  65  96 S5        29.67F VSB 1/4
BEEVILLE       CLOUDY    57  57 100 S3        29.67F FOG
ROCKPORT       FOG       67  66  97 CALM      29.66F VSB 1/2
PORT ARANSAS   FOG       66  65  97 CALM      29.67F VSB 1/4
PORT LAVACA    CLOUDY    66  66 100 CALM      29.68F FOG
CORPUS CHRISTI FOG       66  66 100 CALM      29.67F VSB 1/2
KINGSVILLE NAS CLOUDY    65  65 100 S3        29.69S FOG
COTULLA        FOG       61  59  93 SE7       29.64F VSB 1/4
LAREDO         CLEAR     62  61  96 SE9       29.67S
BROWNSVILLE    FOG       57  57 100 S3        29.71R VSB 1/4
PORT ISABEL    FOG       65  65 100 S5        29.69F VSB<1/4
HEBBRONVILLE   FOG       62  62  98 SE5       29.69F VSB 1
MCALLEN        FOG       67  66  97 E3        29.70F VSB<1/4
WESLACO        FOG       65  65  99 S3        29.69S VSB<1/4
FALFURRIAS     CLOUDY    65  63  91 CALM      29.69F
EDINBURG       FOG       64  62  95 CALM      29.69F VSB 1/4
$$




USA.gov is the U.S. government's official web portal to all federal, state and local government web resources and services.